Change the Weather History Date:

Thursday, December 26, 2013

  Actual Average Record
Temperature  
Mean Temperature 32 °F -  
Max Temperature 42 °F 27 °F 48 °F (2008)
Min Temperature 21 °F 11 °F -14 °F (1996)
Degree Days  
Heating Degree Days 34    
Moisture  
Dew Point 22 °F    
Average Humidity 76    
Maximum Humidity 93    
Minimum Humidity 46    
Precipitation  
Precipitation 0.00 in - - ()
Sea Level Pressure  
Sea Level Pressure 30.08 in    
Wind  
Wind Speed 10 mph (WSW)    
Max Wind Speed 17 mph    
Max Gust Speed 17 mph    
Visibility 10 miles    
Events      
Averages and records for this station are not official NWS values.
T = Trace of Precipitation, MM = Missing Value Source: NWS Daily Summary

Daily Weather History Graph

Daily Weather History Graph

Search for Another Location

Airport or City:

Trip Planner

Search our weather history database for the weather conditions in past years. The results will help you decide how hot, cold, wet, or windy it might be!

Date:

Astronomy

Dec. 26, 2013 Rise Set
Actual Time 7:49 AM CST 4:53 PM CST
Civil Twilight 7:17 AM CST 5:25 PM CST
Nautical Twilight 6:42 AM CST 6:01 PM CST
Astronomical Twilight 6:07 AM CST 6:35 PM CST
Moon 1:13 AM CST (12/26) 12:34 PM CST (12/26)
Length of Visible Light 10h 08m
Length of Day
9h 03m
Last Quarter, 38% of the Moon is Illuminated
Dec 26
Last Quarter
Jan 1
New
Jan 7
First Quarter
Jan 15
Full
Jan 23
Last Quarter

Hourly Weather History & Observations

Time (CST) Temp. Windchill Dew Point Humidity Pressure Visibility Wind Dir Wind Speed Gust Speed Precip Events Conditions
12:15 AM 23.0 °F 11.1 °F 19.4 °F 86% 30.13 in 10.0 mi WSW 12.7 mph - N/A   Overcast
12:35 AM 24.8 °F 14.6 °F 21.2 °F 86% 30.13 in 10.0 mi WSW 10.4 mph - N/A   Overcast
12:55 AM 24.8 °F 15.3 °F 21.2 °F 86% 30.12 in 10.0 mi WSW 9.2 mph - N/A   Overcast
1:15 AM 24.8 °F 16.9 °F 21.2 °F 86% 30.11 in 10.0 mi SW 6.9 mph 12.7 mph N/A   Overcast
1:35 AM 24.8 °F 16.1 °F 21.2 °F 86% 30.10 in 10.0 mi SW 8.1 mph - N/A   Overcast
1:55 AM 24.8 °F 14.6 °F 21.2 °F 86% 30.10 in 10.0 mi SW 10.4 mph - N/A   Overcast
2:15 AM 23.0 °F 13.1 °F 19.4 °F 86% 30.10 in 10.0 mi SW 9.2 mph - N/A   Scattered Clouds
2:35 AM 23.0 °F 12.4 °F 19.4 °F 86% 30.10 in 10.0 mi SW 10.4 mph - N/A   Clear
2:55 AM 21.2 °F 11.7 °F 19.4 °F 93% 30.10 in 10.0 mi SW 8.1 mph - N/A   Mostly Cloudy
3:15 AM 23.0 °F 13.1 °F 19.4 °F 86% 30.09 in 10.0 mi SW 9.2 mph - N/A   Mostly Cloudy
3:35 AM 23.0 °F 13.1 °F 19.4 °F 86% 30.09 in 10.0 mi SW 9.2 mph - N/A   Scattered Clouds
3:55 AM 21.2 °F 11.7 °F 17.6 °F 86% 30.09 in 10.0 mi SW 8.1 mph - N/A   Scattered Clouds
4:15 AM 23.0 °F 12.4 °F 19.4 °F 86% 30.07 in 10.0 mi SW 10.4 mph - N/A   Scattered Clouds
4:35 AM 23.0 °F 13.9 °F 17.6 °F 80% 30.06 in 10.0 mi SW 8.1 mph - N/A   Partly Cloudy
4:55 AM 21.2 °F 11.7 °F 17.6 °F 86% 30.06 in 10.0 mi WSW 8.1 mph - N/A   Clear
5:15 AM 21.2 °F 11.7 °F 17.6 °F 86% 30.06 in 10.0 mi WSW 8.1 mph - N/A   Scattered Clouds
5:35 AM 21.2 °F 12.6 °F 17.6 °F 86% 30.06 in 10.0 mi WSW 6.9 mph - N/A   Overcast
5:55 AM 21.2 °F 13.6 °F 17.6 °F 86% 30.05 in 10.0 mi WSW 5.8 mph - N/A   Overcast
6:15 AM 21.2 °F 11.7 °F 17.6 °F 86% 30.05 in 10.0 mi WSW 8.1 mph - N/A   Overcast
6:35 AM 23.0 °F 13.1 °F 19.4 °F 86% 30.05 in 10.0 mi WSW 9.2 mph - N/A   Overcast
6:55 AM 23.0 °F 12.4 °F 19.4 °F 86% 30.04 in 10.0 mi SW 10.4 mph - N/A   Overcast
7:15 AM 23.0 °F 13.1 °F 19.4 °F 86% 30.03 in 10.0 mi SW 9.2 mph - N/A   Overcast
7:35 AM 24.8 °F 15.3 °F 21.2 °F 86% 30.03 in 10.0 mi SW 9.2 mph - N/A   Overcast
7:55 AM 24.8 °F 15.3 °F 21.2 °F 86% 30.03 in 10.0 mi SW 9.2 mph - N/A   Overcast
8:15 AM 26.6 °F 16.8 °F 21.2 °F 80% 30.03 in 10.0 mi WSW 10.4 mph - N/A   Overcast
8:35 AM 26.6 °F 17.5 °F 21.2 °F 80% 30.05 in 10.0 mi WSW 9.2 mph - N/A   Overcast
8:55 AM 26.6 °F 16.8 °F 21.2 °F 80% 30.05 in 10.0 mi WSW 10.4 mph - N/A   Mostly Cloudy
9:15 AM 26.6 °F 18.2 °F 23.0 °F 86% 30.06 in 10.0 mi WSW 8.1 mph - N/A   Mostly Cloudy
9:35 AM 28.4 °F 20.4 °F 23.0 °F 80% 30.06 in 10.0 mi West 8.1 mph - N/A   Scattered Clouds
9:55 AM 28.4 °F 20.4 °F 23.0 °F 80% 30.06 in 10.0 mi West 8.1 mph - N/A   Partly Cloudy
10:15 AM 30.2 °F 22.6 °F 23.0 °F 75% 30.05 in 10.0 mi SW 8.1 mph - N/A   Clear
10:35 AM 30.2 °F 22.6 °F 23.0 °F 75% 30.06 in 10.0 mi SW 8.1 mph - N/A   Clear
10:55 AM 32.0 °F 23.0 °F 23.0 °F 69% 30.06 in 10.0 mi WSW 11.5 mph - N/A   Clear
11:15 AM 32.0 °F 21.6 °F 23.0 °F 69% 30.06 in 10.0 mi WSW 15.0 mph - N/A   Clear
11:35 AM 33.8 °F 24.3 °F 24.8 °F 70% 30.05 in 10.0 mi WSW 13.8 mph - N/A   Clear
11:55 AM 35.6 °F 26.6 °F 24.8 °F 65% 30.05 in 10.0 mi West 13.8 mph - N/A   Scattered Clouds
12:15 PM 35.6 °F 26.6 °F 24.8 °F 65% 30.04 in 10.0 mi West 13.8 mph - N/A   Overcast
12:35 PM 35.6 °F 26.6 °F 24.8 °F 65% 30.03 in 10.0 mi WSW 13.8 mph - N/A   Scattered Clouds
12:55 PM 37.4 °F 30.3 °F 24.8 °F 60% 30.03 in 10.0 mi WSW 10.4 mph - N/A   Clear
1:15 PM 39.2 °F 32.5 °F 24.8 °F 56% 30.03 in 10.0 mi WSW 10.4 mph - N/A   Clear
1:35 PM 41.0 °F 35.2 °F 24.8 °F 53% 30.02 in 10.0 mi WSW 9.2 mph - N/A   Clear
1:55 PM 41.0 °F 35.2 °F 24.8 °F 53% 30.02 in 10.0 mi WSW 9.2 mph - N/A   Clear
2:15 PM 42.8 °F 36.6 °F 24.8 °F 49% 30.02 in 10.0 mi WSW 11.5 mph - N/A   Clear
2:35 PM 42.8 °F 36.2 °F 24.8 °F 49% 30.03 in 10.0 mi WSW 12.7 mph - N/A   Clear
2:55 PM 42.8 °F 35.8 °F 23.0 °F 46% 30.03 in 10.0 mi West 13.8 mph - N/A   Clear
3:15 PM 42.8 °F 37.0 °F 23.0 °F 46% 30.04 in 10.0 mi West 10.4 mph 17.3 mph N/A   Clear
3:35 PM 42.8 °F 35.8 °F 24.8 °F 49% 30.05 in 10.0 mi West 13.8 mph - N/A   Partly Cloudy
3:55 PM 42.8 °F 36.6 °F 24.8 °F 49% 30.06 in 10.0 mi West 11.5 mph - N/A   Mostly Cloudy
4:15 PM 41.0 °F 34.3 °F 24.8 °F 53% 30.07 in 10.0 mi West 11.5 mph - N/A   Mostly Cloudy
4:35 PM 39.2 °F 32.0 °F 24.8 °F 56% 30.08 in 10.0 mi West 11.5 mph - N/A   Partly Cloudy
4:55 PM 35.6 °F 28.0 °F 24.8 °F 65% 30.09 in 10.0 mi West 10.4 mph - N/A   Clear
5:15 PM 35.6 °F 28.0 °F 24.8 °F 65% 30.09 in 10.0 mi West 10.4 mph - N/A   Clear
5:35 PM 33.8 °F 26.4 °F 23.0 °F 65% 30.09 in 10.0 mi West 9.2 mph - N/A   Partly Cloudy
5:55 PM 32.0 °F 23.6 °F 23.0 °F 69% 30.10 in 10.0 mi West 10.4 mph - N/A   Clear
6:15 PM 32.0 °F 24.2 °F 23.0 °F 69% 30.11 in 10.0 mi West 9.2 mph - N/A   Clear
6:35 PM 32.0 °F 23.6 °F 23.0 °F 69% 30.11 in 10.0 mi West 10.4 mph - N/A   Clear
6:55 PM 30.2 °F 20.8 °F 23.0 °F 75% 30.12 in - WNW 11.5 mph - N/A   Clear
7:15 PM 32.0 °F 20.8 °F 24.8 °F 75% 30.13 in 10.0 mi WNW 17.3 mph - N/A   Clear
7:35 PM 32.0 °F 22.1 °F 24.8 °F 75% 30.13 in 10.0 mi WNW 13.8 mph - N/A   Clear
7:55 PM 30.2 °F 20.8 °F 23.0 °F 75% 30.14 in 10.0 mi WNW 11.5 mph - N/A   Clear
8:15 PM 28.4 °F 17.5 °F 24.8 °F 86% 30.13 in 10.0 mi WNW 13.8 mph - N/A   Clear
8:35 PM 30.2 °F 19.8 °F 24.8 °F 80% 30.14 in 10.0 mi NW 13.8 mph - N/A   Clear
8:55 PM 30.2 °F 19.3 °F 24.8 °F 80% 30.14 in 10.0 mi WNW 15.0 mph - N/A   Clear
9:15 PM 30.2 °F 19.3 °F 24.8 °F 80% 30.14 in 10.0 mi WNW 15.0 mph - N/A   Clear
9:35 PM 30.2 °F 19.3 °F 24.8 °F 80% 30.15 in 10.0 mi WNW 15.0 mph - N/A   Clear
9:55 PM 28.4 °F 18.0 °F 24.8 °F 86% 30.15 in 10.0 mi WNW 12.7 mph - N/A   Clear
10:15 PM 26.6 °F 18.2 °F 23.0 °F 86% 30.16 in 10.0 mi West 8.1 mph - N/A   Clear
10:35 PM 24.8 °F 14.6 °F 21.2 °F 86% 30.17 in 10.0 mi WNW 10.4 mph - N/A   Clear
10:55 PM 23.0 °F 12.4 °F 21.2 °F 93% 30.16 in 10.0 mi WNW 10.4 mph - N/A   Clear
11:15 PM 23.0 °F 14.7 °F 21.2 °F 93% 30.16 in 10.0 mi West 6.9 mph - N/A   Clear
11:35 PM 23.0 °F 12.4 °F 21.2 °F 93% 30.17 in 10.0 mi West 10.4 mph - N/A   Clear
11:55 PM 21.2 °F 9.5 °F 19.4 °F 93% 30.17 in 10.0 mi West 11.5 mph - N/A   Clear